Temp
22 22 21 21 20 21 21 21 21 21 21 20 19 19 19 19 19 19 19 19 19 19 19 19 19 19 19 18 18 18 18 18 18 18 18 18 18 18 18 19 20 19 18
22 21 21 21 20 21 21 21 21 21 20 20 20 19 19 19 19 19 19 19 19 20 19 19 19 19 19 18 18 18 18 19 18 19 19 19 19 18 19 19 19 18 18
21 22 21 21 20 21 21 21 21 20 20 20 20 19 19 19 19 19 19 19 19 19 19 19 19 19 18 17 17 17 18 19 19 19 19 20 19 18 18 18 18 18 18
21 22 22 21 21 21 21 21 21 20 20 20 20 19 19 19 19 19 19 19 20 19 19 19 19 18 17 17 17 17 18 19 19 19 21 20 19 18 18 18 18 18 18
21 22 22 21 21 21 21 21 21 20 20 20 20 20 19 19 19 19 19 19 19 19 19 19 18 18 18 17 17 17 18 18 18 19 20 20 20 18 17 17 17 17 17
22 22 21 20 20 21 20 21 20 20 20 20 20 19 19 19 19 19 19 19 19 19 19 19 18 18 18 18 18 18 18 18 18 19 20 19 20 17 17 16 16 16 16
19 20 21 20 20 20 20 20 20 20 20 20 20 19 19 19 19 19 19 19 19 19 18 18 17 18 18 18 18 18 19 18 19 19 19 19 18 17 17 16 16 16 16
18 19 21 20 20 20 20 20 20 20 20 20 20 19 19 19 19 19 19 19 19 19 18 17 17 18 18 18 17 18 19 19 19 19 19 19 17 17 16 16 16 17 17
17 18 20 20 20 20 20 20 20 20 20 20 20 20 19 20 19 19 19 19 19 19 18 17 18 18 18 18 18 18 19 19 19 19 19 19 17 17 16 17 17 17 17
18 18 18 19 21 21 20 19 20 20 20 19 20 19 19 19 19 19 20 19 19 19 18 18 18 18 18 17 18 18 18 18 19 18 19 19 17 16 17 17 17 17 17
18 18 17 18 19 20 20 20 19 19 19 19 19 19 19 20 19 19 19 19 19 19 19 18 18 18 18 18 18 18 18 19 19 19 19 18 17 16 17 17 17 17 17
18 17 17 17 17 18 20 20 20 20 19 19 19 19 19 20 21 20 19 19 19 19 19 18 18 18 18 19 17 17 18 19 19 19 19 18 18 16 16 17 17 17 17
16 16 17 17 17 17 18 19 20 21 20 20 20 20 20 21 20 20 18 18 18 17 17 17 17 18 18 19 19 19 19 19 19 19 19 18 18 17 17 17 17 17 17
16 16 16 17 17 17 17 18 19 20 20 20 19 20 20 20 20 20 19 18 18 19 19 19 18 19 19 18 19 19 19 19 19 19 19 18 18 18 16 17 16 17 17
16 15 16 16 17 17 17 17 18 19 19 20 19 19 20 20 20 20 20 19 18 19 20 19 19 18 18 18 19 19 19 19 19 19 19 19 18 18 18 17 17 16 17
16 16 15 16 16 17 17 16 17 18 20 20 19 19 19 20 20 20 20 20 19 19 19 19 19 19 19 18 18 19 19 19 19 19 19 19 19 18 18 18 18 17 17
17 16 15 15 16 17 17 17 17 18 18 18 18 18 18 18 20 19 19 20 19 19 18 18 18 18 18 18 18 19 19 19 19 19 19 19 19 19 19 19 18 18 18
15 15 15 15 15 16 17 17 16 16 17 17 18 17 17 18 18 19 19 20 19 19 18 18 18 18 18 18 18 19 19 19 19 19 19 19 19 19 19 19 19 19 18
15 15 15 15 15 16 17 17 17 15 16 17 17 17 18 18 18 18 18 19 19 18 16 17 17 17 18 17 17 18 19 19 19 19 19 19 19 18 19 19 19 19 19
14 15 15 15 15 16 17 16 16 15 15 16 17 17 17 18 17 17 17 18 17 17 16 16 17 17 17 18 18 17 18 18 19 19 19 19 19 19 18 18 18 19 19
13 14 14 15 15 15 16 16 15 15 15 15 16 17 17 16 17 16 16 16 16 16 16 17 17 17 15 17 16 16 17 17 18 18 18 18 19 19 18 18 19 18 18
13 14 14 14 14 15 16 17 15 15 15 15 16 16 16 16 16 17 16 16 16 16 16 16 16 16 17 16 17 18 20 20 19 19 19 19 19 19 18 18 18 18 18
13 13 14 14 14 14 15 16 15 15 14 15 15 15 16 16 16 16 16 16 16 16 16 16 16 17 18 17 16 19 20 20 21 19 19 19 18 18 17 18 18 18 18
14 13 13 13 14 14 14 14 15 14 15 14 14 15 16 16 16 16 16 16 15 15 15 16 16 17 17 18 16 16 19 20 20 19 18 20 17 17 17 17 18 18 18
13 13 13 12 13 14 14 14 15 14 15 15 15 16 16 15 15 15 15 16 15 15 15 15 15 16 16 17 18 17 17 17 17 18 18 19 16 16 16 17 18 16 18
13 13 13 12 12 13 14 14 14 14 14 15 15 16 16 16 15 15 15 15 16 15 15 15 15 15 16 16 17 17 17 16 17 17 15 18 18 18 17 17 18 17 17
Height
790 791 791 793 796 797 798 800 802 803 805 807 808 810 810 811 812 813 815 815 816 818 819 819 819 819 820 821 820 820 821 822 822 822 822 822 822 823 822 823 823 823 823
790 790 791 793 796 798 799 800 802 804 806 807 810 811 812 812 813 814 816 817 818 820 820 821 821 822 823 823 823 823 822 823 824 824 824 824 824 824 824 825 825 825 825
788 789 791 793 796 799 800 801 803 805 806 808 810 811 812 814 814 815 817 818 819 821 821 821 823 824 824 824 825 825 824 825 826 827 827 828 828 827 827 827 827 827 827
788 789 792 793 795 799 800 802 803 805 807 809 811 812 813 814 815 816 817 818 820 821 822 823 824 824 825 826 827 827 827 827 828 829 830 830 831 830 830 830 830 830 829
789 790 792 793 795 798 801 802 804 805 807 809 811 813 814 814 815 817 818 819 821 822 823 824 825 826 826 827 828 829 829 829 830 832 832 833 833 833 832 832 831 831 831
790 791 792 794 796 797 800 801 803 805 807 809 810 812 813 815 816 818 819 821 822 824 824 825 826 827 828 828 829 830 831 831 832 834 834 835 835 834 834 834 833 833 832
791 791 792 793 795 796 798 801 803 805 806 808 810 812 814 815 817 818 819 821 823 824 826 826 827 828 829 830 830 831 832 832 834 835 835 836 836 836 836 835 835 834 834
792 791 792 794 795 798 799 800 802 805 807 808 809 811 814 815 817 818 818 820 822 824 825 827 828 829 830 830 832 832 832 833 835 836 836 837 836 837 837 836 836 836 835
793 792 792 794 795 797 799 801 802 804 806 807 809 811 813 815 816 817 819 820 822 824 825 827 829 831 832 833 833 833 834 834 836 837 837 838 837 838 837 837 837 837 836
795 793 792 793 795 797 798 799 801 803 805 807 808 810 812 814 816 817 819 820 822 824 825 827 829 831 833 834 835 835 835 836 837 837 838 838 838 838 838 838 838 838 837
795 794 792 792 794 795 796 797 799 801 805 806 809 810 811 814 815 817 818 819 821 823 825 827 829 830 832 834 835 836 836 837 837 837 838 837 837 838 838 838 838 838 838
793 793 792 791 791 792 795 796 798 799 802 804 807 809 811 812 813 814 817 818 821 823 825 827 828 830 831 834 834 835 836 837 837 837 837 836 837 838 838 838 838 838 838
791 790 790 790 789 790 791 792 795 796 798 800 803 806 808 809 811 813 815 817 820 822 825 827 828 830 832 833 834 834 835 836 836 836 836 836 836 837 838 838 838 838 838
787 786 786 786 787 786 787 788 790 793 795 797 799 802 804 806 808 810 812 815 817 819 822 825 827 828 830 832 833 833 834 834 834 835 835 835 835 836 837 837 837 836 836
781 781 782 782 783 784 783 783 786 787 790 792 794 797 799 802 804 806 808 811 814 816 819 821 824 826 828 829 830 831 832 832 833 833 833 833 834 834 834 835 835 834 834
777 775 777 778 779 779 779 778 779 783 785 787 789 791 794 797 800 802 804 807 809 813 815 818 819 822 825 826 828 829 830 830 830 831 831 831 831 831 832 832 832 832 832
771 770 770 772 773 775 775 775 775 775 780 782 784 786 789 793 796 798 800 803 806 808 812 814 817 820 822 824 824 826 827 828 828 829 829 828 828 827 829 829 829 830 830
766 765 765 767 768 769 771 772 772 772 774 777 780 781 783 787 791 794 797 799 802 805 808 811 813 816 819 821 822 823 824 823 825 826 826 826 826 825 824 825 825 826 826
759 759 759 760 762 764 765 767 768 768 770 772 774 777 778 781 785 790 793 795 798 801 804 805 809 812 814 816 816 819 820 819 819 820 820 822 823 822 822 821 821 821 821
752 752 752 753 755 758 760 762 763 763 763 766 769 772 776 776 781 786 789 791 794 797 800 801 805 805 810 810 811 812 814 815 815 815 815 816 817 817 818 818 817 815 816
746 746 745 746 748 751 753 754 756 757 758 760 762 767 771 774 775 779 784 786 789 791 794 797 800 803 803 805 807 807 806 806 808 807 809 808 810 811 811 811 811 812 811
741 740 740 741 743 745 747 748 751 753 754 755 757 759 764 769 771 771 776 779 783 785 790 791 795 798 799 800 801 804 801 800 799 798 801 801 801 806 805 806 807 807 807
735 734 734 735 738 740 743 745 747 749 750 751 753 755 758 762 766 767 773 775 778 782 783 787 790 791 791 794 795 796 795 792 791 791 794 791 796 798 799 798 800 801 802
728 728 728 729 732 735 738 740 743 744 745 747 749 752 755 758 761 764 767 771 773 775 777 780 784 785 786 786 790 790 787 788 787 787 784 782 790 795 793 792 794 795 795
725 723 723 723 725 729 732 734 738 742 743 744 747 749 751 754 758 761 763 765 767 769 771 776 777 778 779 780 780 784 784 785 786 785 780 783 792 788 789 788 788 790 787
720 718 717 719 720 723 727 730 732 737 740 741 742 746 748 750 753 757 759 761 762 764 766 768 770 771 772 772 774 776 777 778 779 779 780 779 782 784 784 784 780 787 783
Wind_Speed
2 9 19 20 20 22 20 17 18 20 18 17 16 15 15 13 14 16 15 16 17 14 13 13 14 12 14 13 11 13 13 13 13 13 13 13 12 12 12 15 13 12 14
10 11 20 20 21 21 20 18 17 19 19 19 17 16 15 14 15 16 15 16 15 13 14 13 12 14 13 12 12 13 12 13 14 14 14 13 13 13 14 15 12 12 13
9 13 19 21 21 21 20 19 18 19 20 18 17 16 15 14 15 15 16 19 16 14 12 15 15 14 11 11 12 11 12 15 15 17 15 12 12 13 12 13 13 12 13
4 12 19 21 21 22 21 19 19 19 19 18 16 15 15 14 15 16 16 19 16 17 15 13 15 14 12 12 11 11 12 14 14 13 10 10 11 12 12 12 11 10 9
3 11 17 20 22 21 22 20 19 20 19 18 16 15 14 15 15 16 15 17 18 14 16 16 15 13 13 12 11 10 11 12 12 10 8 8 8 8 9 9 8 8 8
4 10 14 19 21 22 22 21 21 20 18 18 18 17 16 15 16 15 14 18 19 17 17 16 14 14 13 12 11 9 9 10 9 6 6 8 6 7 7 8 8 8 8
5 6 12 18 20 22 23 22 21 20 19 18 18 16 16 17 17 14 15 20 19 18 16 15 14 13 12 11 10 8 9 9 5 5 6 6 6 7 7 7 7 7 7
6 6 11 15 17 19 22 22 21 20 20 18 18 16 16 17 18 17 19 21 17 18 16 15 14 12 11 11 11 9 8 9 6 6 6 6 6 7 6 6 6 6 6
12 3 7 12 14 16 19 20 21 21 21 21 19 17 17 17 19 18 20 22 16 17 17 16 14 11 10 10 10 8 8 8 5 5 5 5 7 6 5 5 5 5 5
11 10 5 7 12 14 16 19 21 22 21 20 19 18 17 16 17 17 19 21 16 16 17 18 16 12 9 10 9 7 7 7 4 5 4 4 7 5 4 4 3 3 3
10 9 9 5 10 15 15 16 20 21 20 19 18 18 15 14 16 17 19 22 18 16 17 18 16 14 11 10 10 8 6 5 5 5 4 7 7 5 5 4 3 3 2
15 11 8 7 9 12 15 16 16 17 17 17 17 16 16 16 16 16 18 20 19 16 17 18 17 15 12 9 9 10 7 6 6 5 5 7 7 7 6 5 4 4 3
19 18 13 10 8 12 15 15 17 18 17 18 18 18 17 16 15 16 15 20 16 16 14 16 16 14 13 11 10 9 9 8 7 6 7 8 8 8 8 7 7 6 5
21 21 19 15 12 10 15 16 18 19 18 18 18 19 18 18 17 17 16 17 17 16 16 16 15 15 13 12 11 10 9 9 8 7 8 10 10 9 9 10 9 9 8
24 24 20 17 15 12 12 18 22 22 22 20 19 21 22 21 20 20 19 18 18 16 17 17 16 15 14 13 12 12 11 11 10 9 8 11 12 12 10 11 12 11 10
23 25 23 20 18 15 14 16 23 23 23 22 21 22 23 23 22 21 22 21 20 17 17 18 18 17 16 14 13 12 12 12 12 12 11 10 13 14 13 13 13 13 13
24 22 23 21 20 19 18 16 19 27 22 21 22 21 23 25 23 22 22 22 21 19 18 18 16 15 15 14 13 13 13 13 13 13 13 12 12 16 17 16 16 15 14
25 22 21 20 20 20 20 17 19 22 21 22 22 21 24 28 24 24 22 22 20 19 19 19 18 16 15 13 12 13 13 13 13 14 15 15 14 14 15 19 20 20 19
24 23 21 19 20 22 21 20 18 23 23 24 23 24 24 28 28 28 25 23 22 20 20 26 21 18 18 16 13 13 15 15 15 15 16 17 17 17 17 18 21 23 23
24 24 24 21 19 20 22 20 18 19 25 23 20 20 24 27 26 22 21 24 21 22 20 24 26 23 19 19 16 15 16 15 15 16 17 16 18 18 18 18 17 20 22
22 23 26 24 22 21 24 23 20 19 21 27 27 21 21 22 30 23 22 25 24 26 24 24 25 25 23 25 18 20 25 23 21 20 20 19 21 20 19 20 22 19 20
21 22 22 24 23 23 26 25 22 19 21 27 26 25 21 22 23 29 30 29 26 27 24 26 25 22 25 21 17 14 7 15 21 19 21 21 21 23 21 21 20 22 20
18 21 23 23 23 23 23 22 19 17 17 19 23 25 24 24 23 25 27 25 28 24 24 26 27 29 23 23 26 20 6 10 11 12 15 11 20 22 21 20 22 20 21
18 17 20 21 22 21 23 22 21 17 17 18 20 22 23 21 22 25 26 29 25 27 26 26 28 29 28 24 19 30 30 16 7 4 5 8 14 21 18 19 21 22 22
17 16 17 18 21 22 23 24 22 21 19 18 20 18 20 18 20 20 22 22 27 29 29 30 28 28 29 29 27 21 25 24 21 9 4 8 10 10 14 14 13 15 15
17 16 16 15 17 20 22 24 22 20 20 19 15 16 17 17 18 22 24 26 28 28 30 32 32 31 32 30 30 27 22 17 19 14 4 10 16 19 23 21 20 26 21
Wind_Direction
298 202 181 186 178 177 173 173 174 177 176 169 158 157 154 153 148 147 144 137 134 134 136 139 142 136 125 121 118 124 114 112 114 114 111 106 103 102 109 102 86 92 92
307 210 189 187 182 184 179 177 172 173 175 168 165 161 157 156 153 153 151 151 144 142 141 144 136 128 129 127 121 120 120 120 116 108 110 108 102 100 103 106 103 100 98
312 198 185 186 184 185 179 176 173 172 173 169 169 167 162 164 162 163 158 153 148 152 149 155 141 136 139 134 127 125 121 127 121 110 107 105 103 101 102 102 93 92 89
304 186 185 190 185 184 184 179 177 177 176 172 175 177 170 173 173 172 167 161 153 158 146 137 139 147 138 141 139 132 129 132 130 108 107 104 100 91 91 92 93 95 87
212 191 188 196 189 184 184 183 186 182 181 178 183 188 185 176 178 177 178 166 157 167 161 164 163 162 147 147 146 144 140 137 131 102 116 120 114 106 104 98 93 95 99
219 205 196 202 197 190 190 187 191 188 188 193 192 194 188 181 175 180 184 166 166 169 177 179 166 154 152 150 152 156 157 152 126 123 111 115 109 112 102 98 98 91 85
296 232 205 203 205 200 195 194 193 194 193 196 196 197 191 184 179 185 178 173 174 180 183 171 164 165 167 169 165 164 167 160 140 136 127 119 118 107 102 98 95 89 83
348 261 211 208 209 209 205 199 198 200 197 195 201 200 198 190 187 192 184 181 187 183 183 171 170 171 167 165 173 173 167 160 139 142 134 125 132 119 116 110 104 97 88
9 296 237 213 210 214 214 211 206 205 206 203 206 206 201 196 197 198 191 189 189 187 182 175 176 176 173 173 174 172 168 155 156 155 144 137 140 137 133 126 118 106 95
3 11 325 252 229 218 217 217 218 216 213 212 211 209 205 201 199 210 199 195 194 191 185 182 180 182 184 187 188 178 172 164 169 163 162 178 151 160 160 152 139 123 103
333 348 352 297 242 236 225 221 221 222 221 219 217 215 210 207 210 215 206 199 196 192 191 192 188 187 186 192 199 197 187 193 184 189 187 204 170 190 197 188 181 179 159
305 309 315 319 266 247 231 227 224 221 220 218 219 218 213 217 215 212 205 202 197 199 198 198 197 196 189 192 200 210 211 218 213 208 204 210 201 206 219 225 219 223 239
289 289 286 287 288 253 235 225 223 221 218 217 217 217 215 217 216 210 200 195 194 202 198 200 202 200 204 205 204 208 220 222 227 228 232 227 225 221 232 242 242 242 250
283 278 275 270 270 263 241 229 222 222 220 217 215 216 215 215 214 212 208 200 200 201 205 204 203 205 209 214 217 222 227 226 230 236 243 241 236 234 235 245 251 251 253
274 271 268 262 257 258 243 238 225 223 221 222 218 217 215 219 216 211 211 207 205 201 205 205 205 206 210 216 223 227 233 238 243 244 243 252 243 242 239 235 246 250 250
271 267 263 257 251 245 245 232 227 223 224 221 220 218 217 218 218 214 214 212 208 207 209 210 208 209 214 218 224 232 239 242 247 248 250 251 248 245 244 243 241 248 247
267 266 259 254 248 240 242 241 229 218 221 219 217 214 215 213 217 217 217 214 211 208 210 203 208 212 214 225 228 237 240 247 252 253 254 254 251 246 246 247 249 251 254
262 259 258 253 248 238 235 237 233 225 217 217 215 215 218 214 216 216 216 215 214 210 207 203 203 214 222 226 233 240 244 245 254 257 259 257 257 245 248 249 252 254 255
256 251 252 252 250 243 235 233 232 228 222 221 221 220 222 220 221 218 216 216 213 210 207 207 207 213 222 224 228 239 251 248 248 253 255 257 256 252 250 257 258 256 255
252 245 243 246 246 239 234 233 232 226 223 214 215 219 228 222 216 216 220 217 210 208 209 209 217 217 229 228 230 231 244 251 251 253 253 255 256 253 251 255 257 258 256
252 247 239 239 240 231 224 224 223 225 218 217 212 212 212 217 217 213 218 219 212 211 211 214 219 222 222 228 228 242 246 249 249 247 251 247 247 250 247 247 256 258 257
254 249 245 243 241 233 228 222 221 224 224 219 212 207 203 208 211 215 219 214 211 209 214 212 212 220 231 220 218 247 246 238 241 242 244 241 251 246 245 247 248 254 261
252 245 241 241 238 234 228 229 221 226 225 208 211 204 201 205 209 211 216 216 215 216 213 222 220 219 225 226 225 228 228 245 234 218 236 242 244 244 238 246 251 252 258
265 250 245 241 237 230 220 220 222 218 219 207 210 212 215 212 211 221 221 221 225 221 220 220 227 226 225 227 223 232 240 258 245 236 230 276 280 247 237 239 250 255 257
277 261 249 241 233 227 221 216 220 226 233 218 217 211 210 211 216 216 220 221 226 227 227 231 232 231 232 231 228 229 232 236 246 242 230 222 239 233 235 229 259 250 265
277 265 257 243 233 220 217 215 215 219 231 224 209 213 213 218 224 230 232 233 234 233 232 234 239 238 235 230 229 228 224 212 224 219 227 240 245 248 261 260 275 266 265